Terminal Aerodrome Forecast
Issued by NWS Charleston, WV

Home | Current Version | Previous Version | Text Only | Print | Product List | Glossary On
Versions: 1 2 3 4 5 6 7 8 9 10 11 12 13 14 15 16 17 18 19 20 21 22 23
000
FTUS41 KRLX 190500
TAFBKW
TAF
KBKW 190520Z 1906/2006 32005KT P6SM BKN035
     FM190900 VRB03KT P6SM BKN025
     FM191500 30005KT P6SM SCT035
     FM200200 VRB03KT P6SM BKN080=

USA.gov is the U.S. government's official web portal to all federal, state and local government web resources and services.